Date String (YYYY-MM-DD hh:mm:ss) UTC,Instrument flags,absolute air pressure of the measurement (hPa),sample flow rate (lpm),inlet stack bypass flow (lpm),air temperature of the measurement (°C),ambient temperature measured by the external sensor (°C),aerosol sample conditioner tube jacket temperature (°C),OPC LED temperature (°C),internal box temperature (°C),relative humidity of the measurement (%),span deviation,mass concentration of particles derived from Lorenz-Mie calculation of OPC scattering (μg/m³),mass concentration of particles derived from Lorenz-Mie calculation of OPC scattering (μg/m³),mass concentration of particles derived from Lorenz-Mie calculation of OPC scattering (μg/m³)
DateTimeUTC,F1_M11,P_M11,Q1_M11,Q2_M11,T1_M11,T2_M11,T3_M11,T4_M11,T5_M11,U1_M11,ZSPAN_M11,X0_M11,X2_M11,X1_M11
2024-02-16 06:00:00,SystemResetWarning,0828.9,5.00,000.00,020.0,019.4,000.0,028.5,021.8,21.9,0001.5,0012.88,0008.01,0007.57
2024-02-16 06:01:00,SystemResetWarning,0828.9,5.00,000.00,019.9,019.4,000.0,028.5,021.8,21.6,0001.2,0012.81,0008.04,0007.60
2024-02-16 06:02:00,SystemResetWarning,0829.0,5.00,000.00,019.9,019.4,000.0,028.5,021.7,21.4,0001.1,0012.64,0008.05,0007.62
2024-02-16 06:03:00,SystemResetWarning,0829.0,5.00,000.00,019.9,019.4,000.0,028.5,021.7,21.3,0001.4,0012.53,0008.06,0007.65
2024-02-16 06:04:00,SystemResetWarning,0829.0,5.00,000.00,019.9,019.4,000.0,028.5,021.7,21.2,0001.5,0012.83,0008.10,0007.69
2024-02-16 06:05:00,SystemResetWarning,0829.0,5.00,000.00,019.9,019.4,000.0,028.5,021.7,21.2,0001.6,0012.60,0008.19,0007.77
2024-02-16 06:06:00,SystemResetWarning,0828.9,5.00,000.00,019.9,019.4,000.0,028.5,021.7,21.1,0001.7,0011.97,0008.24,0007.83
2024-02-16 06:07:00,SystemResetWarning,0829.0,5.01,000.00,019.9,019.3,000.0,028.5,021.7,21.1,0002.0,0012.00,0008.27,0007.86
2024-02-16 06:08:00,SystemResetWarning,0829.0,5.00,000.00,019.9,019.3,000.0,028.5,021.6,21.2,0001.9,0011.82,0008.25,0007.85
2024-02-16 06:09:00,SystemResetWarning,0829.0,5.01,000.00,019.9,019.3,000.0,028.4,021.6,21.2,0001.8,0011.50,0008.11,0007.74
2024-02-16 06:10:00,SystemResetWarning,0829.0,5.00,000.00,019.8,019.3,000.0,028.4,021.6,21.2,0001.8,0011.22,0007.93,0007.58
2024-02-16 06:11:00,SystemResetWarning,0829.0,5.00,000.00,019.8,019.3,000.0,028.4,021.6,21.2,0001.4,0010.95,0007.74,0007.42
2024-02-16 06:12:00,SystemResetWarning,0829.1,5.00,000.00,019.8,019.3,000.0,028.4,021.6,21.2,0001.5,0010.69,0007.55,0007.25
2024-02-16 06:13:00,SystemResetWarning,0829.1,5.00,000.00,019.8,019.3,000.0,028.4,021.5,21.2,0001.5,0010.56,0007.36,0007.04
2024-02-16 06:14:00,SystemResetWarning,0829.1,5.00,000.00,019.8,019.2,000.0,028.4,021.6,21.2,0001.6,0010.40,0007.17,0006.83
2024-02-16 06:15:00,SystemResetWarning,0829.1,5.00,000.00,019.8,019.2,000.0,028.4,021.6,21.2,0001.2,0009.72,0006.95,0006.62
2024-02-16 06:16:00,SystemResetWarning,0829.1,4.99,000.00,019.8,019.2,000.0,028.4,021.5,21.0,0000.7,0009.43,0006.70,0006.38
2024-02-16 06:17:00,SystemResetWarning,0829.1,5.00,000.00,019.8,019.2,000.0,028.4,021.5,20.9,0000.3,0009.20,0006.47,0006.14
2024-02-16 06:18:00,SystemResetWarning,0829.1,5.00,000.00,019.8,019.2,000.0,028.4,021.5,20.9,-000.4,0009.03,0006.22,0005.92
2024-02-16 06:19:00,SystemResetWarning,0829.1,5.00,000.00,019.7,019.2,000.0,028.3,021.5,20.8,-000.6,0008.79,0005.97,0005.69
2024-02-16 06:20:00,SystemResetWarning,0829.1,5.00,000.00,019.7,019.2,000.0,028.3,021.5,20.7,0000.2,0008.63,0005.82,0005.56
2024-02-16 06:21:00,SystemResetWarning,0829.1,5.00,000.00,019.7,019.2,000.0,028.3,021.5,20.7,0000.6,0008.52,0005.72,0005.45
2024-02-16 06:22:00,SystemResetWarning,0829.1,5.00,000.00,019.7,019.1,000.0,028.3,021.5,20.7,0000.6,0008.45,0005.62,0005.35
2024-02-16 06:23:00,SystemResetWarning,0829.0,5.00,000.00,019.7,019.1,000.0,028.3,021.4,20.6,0000.5,0008.41,0005.53,0005.23
2024-02-16 06:24:00,SystemResetWarning,0829.0,5.00,000.00,019.7,019.1,000.0,028.3,021.4,20.6,0000.8,0008.15,0005.35,0005.07
2024-02-16 06:25:00,SystemResetWarning,0829.0,5.00,000.00,019.7,019.1,000.0,028.3,021.4,20.6,0000.4,0007.76,0005.13,0004.91
2024-02-16 06:26:00,SystemResetWarning,0829.0,5.00,000.00,019.6,019.1,000.0,028.3,021.4,20.6,0000.3,0007.82,0004.96,0004.74
2024-02-16 06:27:00,SystemResetWarning,0829.0,4.99,000.00,019.6,019.1,000.0,028.2,021.4,20.6,0000.1,0007.88,0004.79,0004.59
2024-02-16 06:28:00,SystemResetWarning,0829.0,5.00,000.00,019.6,019.1,000.0,028.2,021.4,20.7,0000.0,0007.69,0004.58,0004.42
2024-02-16 06:29:00,SystemResetWarning,0829.0,5.00,000.00,019.6,019.0,000.0,028.2,021.3,20.7,0000.0,0007.41,0004.40,0004.24
2024-02-16 06:30:00,SystemResetWarning,0829.1,5.00,000.00,019.6,019.0,000.0,028.2,021.3,20.7,0000.0,0006.95,0004.21,0004.07
2024-02-16 06:31:00,SystemResetWarning,0829.1,5.01,000.00,019.6,019.0,000.0,028.2,021.3,20.7,0000.0,0006.56,0004.03,0003.89
2024-02-16 06:32:00,SystemResetWarning,0829.1,5.00,000.00,019.6,019.0,000.0,028.2,021.3,20.7,0000.0,0006.31,0003.90,0003.76
2024-02-16 06:33:00,SystemResetWarning,0829.1,5.00,000.00,019.6,019.0,000.0,028.2,021.3,20.7,0000.0,0006.01,0003.78,0003.66
2024-02-16 06:34:00,SystemResetWarning,0829.1,4.99,000.00,019.5,019.0,000.0,028.2,021.3,20.7,0000.0,0005.61,0003.63,0003.55
2024-02-16 06:35:00,SystemResetWarning,0829.1,4.99,000.00,019.5,019.0,000.0,028.1,021.3,20.7,0000.0,0005.52,0003.56,0003.48
2024-02-16 06:36:00,SystemResetWarning,0829.1,4.99,000.00,019.5,019.0,000.0,028.1,021.3,20.7,0000.0,0005.45,0003.51,0003.42
2024-02-16 06:37:00,SystemResetWarning,0829.1,5.00,000.00,019.5,018.9,000.0,028.1,021.3,20.7,0000.0,0004.94,0003.43,0003.36
2024-02-16 06:38:00,SystemResetWarning,0829.1,5.01,000.00,019.5,018.9,000.0,028.1,021.2,20.7,0000.0,0004.31,0003.39,0003.32
2024-02-16 06:39:00,SystemResetWarning,0829.2,5.01,000.00,019.5,018.9,000.0,028.1,021.2,20.8,0000.0,0004.69,0003.37,0003.29
2024-02-16 06:40:00,SystemResetWarning,0829.2,4.99,000.00,019.5,018.9,000.0,028.1,021.2,20.8,0000.0,0004.53,0003.36,0003.26
2024-02-16 06:41:00,SystemResetWarning,0829.2,4.99,000.00,019.4,018.9,000.0,028.1,021.2,20.8,0000.0,0004.78,0003.34,0003.24
2024-02-16 06:42:00,SystemResetWarning,0829.3,5.01,000.00,019.4,018.9,000.0,028.1,021.2,20.9,0000.0,0004.66,0003.31,0003.23
2024-02-16 06:43:00,SystemResetWarning,0829.3,5.01,000.00,019.4,018.8,000.0,028.0,021.1,21.0,0000.0,0004.71,0003.31,0003.22
2024-02-16 06:44:00,SystemResetWarning,0829.3,5.00,000.00,019.4,018.8,000.0,028.0,021.1,21.0,0000.0,0004.69,0003.30,0003.21
2024-02-16 06:45:00,SystemResetWarning,0829.3,4.99,000.00,019.4,018.8,000.0,028.0,021.1,21.0,0000.0,0004.58,0003.28,0003.20
2024-02-16 06:46:00,SystemResetWarning,0829.3,5.00,000.00,019.4,018.8,000.0,028.0,021.1,21.0,0000.0,0004.53,0003.28,0003.19
2024-02-16 06:47:00,SystemResetWarning,0829.4,5.00,000.00,019.4,018.8,000.0,028.0,021.1,21.0,0000.0,0006.09,0003.28,0003.20
2024-02-16 06:48:00,SystemResetWarning,0829.4,5.01,000.00,019.3,018.8,000.0,028.0,021.1,21.0,0000.0,0006.10,0003.29,0003.21
2024-02-16 06:49:00,SystemResetWarning,0829.4,5.01,000.00,019.3,018.7,000.0,028.0,021.1,20.8,0000.0,0005.97,0003.28,0003.20
2024-02-16 06:50:00,SystemResetWarning,0829.4,4.99,000.00,019.3,018.7,000.0,027.9,021.1,20.8,0000.0,0005.39,0003.26,0003.19
2024-02-16 06:51:00,SystemResetWarning,0829.3,5.00,000.00,019.3,018.7,000.0,027.9,021.0,20.6,0000.0,0005.61,0003.23,0003.17
2024-02-16 06:52:00,SystemResetWarning,0829.3,4.99,000.00,019.3,018.7,000.0,027.9,021.0,20.6,0000.0,0006.59,0003.20,0003.14
2024-02-16 06:53:00,SystemResetWarning,0829.3,5.01,000.00,019.3,018.7,000.0,027.9,021.0,20.5,0000.0,0006.65,0003.17,0003.11
2024-02-16 06:54:00,SystemResetWarning,0829.4,5.01,000.00,019.3,018.6,000.0,027.9,021.0,20.5,0000.0,0007.21,0003.13,0003.05
2024-02-16 06:55:00,SystemResetWarning,0829.5,5.01,000.00,019.2,018.6,000.0,027.9,020.9,20.4,0000.0,0007.30,0003.06,0002.96
2024-02-16 06:56:00,SystemResetWarning,0829.5,5.00,000.00,019.2,018.6,000.0,027.8,020.9,20.2,0000.0,0007.23,0002.98,0002.87
2024-02-16 06:57:00,SystemResetWarning,0829.7,5.00,000.00,019.2,018.6,000.0,027.8,020.9,20.1,0000.0,0007.20,0002.91,0002.77
2024-02-16 06:58:00,SystemResetWarning,0829.7,5.00,000.00,019.2,018.6,000.0,027.8,020.9,20.0,0000.0,0005.85,0002.80,0002.67
2024-02-16 06:59:00,SystemResetWarning,0829.7,4.99,000.00,019.2,018.6,000.0,027.8,020.9,19.8,0000.0,0005.40,0002.70,0002.58
